Zurück zum Katalog

SL-14 R/B

AktivPO
NORAD 25369·ROCKET BODY·🇷🇺 Russia

Gestartet Jun 15, 1998 von Plesetsk Cosmodrome

Loading…

Nächste Überflüge (nächste 24 Stunden)

TLE

AktuellSource: Space-Track

Epoche: Sep 14, 2026, 14:48 UTC

1 25369U 98036G   26257.61682943  .00000062  00000-0  47090-3 0  9993
2 25369  82.5964  12.4943 0342965 307.5925  60.5154 12.14698289252420

Verfolge SL-14 R/B in Echtzeit mit AllMySat

Download on the App Store